• In Belarus
  • List of Countries
  • For 7 days
  • Water Temperature
  • Satellite Maps
  • Weather Map
  • Weather Widgets
  • user-avatar
    Login

    Hourly Weather Ordino

    Today, 21 August, Monday

    Time Temperature Precipitation Wind Pressure Humidity
    00:00 +10°C° 0 mm 2 mps 638 mmHg 45%
    01:00 +10°C° 0 mm 2 mps 638 mmHg 44%
    02:00 +10°C° 0 mm 2 mps 638 mmHg 42%
    03:00 +10°C° 0 mm 2 mps 638 mmHg 41%
    04:00 +12°C° 0 mm 2 mps 638 mmHg 42%
    05:00 +12°C° 0 mm 2 mps 638 mmHg 44%
    06:00 +13°C° 0 mm 2 mps 638 mmHg 43%
    07:00 +16°C° 0 mm 1 mps 639 mmHg 39%
    08:00 +20°C° 0 mm 1 mps 640 mmHg 35%
    09:00 +23°C° 0 mm 1 mps 641 mmHg 31%
    10:00 +24°C° 0 mm 1 mps 641 mmHg 29%
    11:00 +26°C° 0 mm 1 mps 642 mmHg 28%
    12:00 +27°C° 0 mm 1 mps 642 mmHg 26%
    13:00 +27°C° 0 mm 2 mps 642 mmHg 27%
    14:00 +27°C° 0 mm 2 mps 641 mmHg 28%
    15:00 +27°C° 0 mm 2 mps 641 mmHg 29%
    16:00 +25°C° 0 mm 2 mps 640 mmHg 36%
    17:00 +23°C° 0 mm 1 mps 640 mmHg 43%
    18:00 +22°C° 0 mm 1 mps 639 mmHg 50%
    19:00 +20°C° 0 mm 1 mps 638 mmHg 56%
    20:00 +18°C° 0 mm 1 mps 638 mmHg 62%
    21:00 +15°C° 0 mm 1 mps 637 mmHg 67%
    22:00 +15°C° 0 mm 1 mps 637 mmHg 68%
    23:00 +15°C° 0 mm 1 mps 637 mmHg 69%

    Tomorrow, 22 August, Tuesday

    Time Temperature Precipitation Wind Pressure Humidity
    00:00 +15°C° 0 mm 1 mps 637 mmHg 70%
    01:00 +14°C° 0 mm 1 mps 637 mmHg 70%
    02:00 +14°C° 0 mm 1 mps 637 mmHg 70%
    03:00 +14°C° 0 mm 1 mps 636 mmHg 69%
    04:00 +14°C° 0 mm 1 mps 637 mmHg 69%
    05:00 +15°C° 0 mm 1 mps 637 mmHg 69%
    06:00 +15°C° 0 mm 1 mps 637 mmHg 69%
    07:00 +19°C° 0 mm 1 mps 638 mmHg 59%
    08:00 +21°C° 0 mm 2 mps 639 mmHg 49%
    09:00 +25°C° 0 mm 2 mps 640 mmHg 39%
    10:00 +26°C° 0 mm 2 mps 640 mmHg 35%
    11:00 +27°C° 0 mm 2 mps 641 mmHg 31%
    12:00 +29°C° 0 mm 2 mps 641 mmHg 27%
    13:00 +29°C° 0 mm 2 mps 640 mmHg 28%
    14:00 +29°C° 0 mm 2 mps 640 mmHg 28%
    15:00 +29°C° 0 mm 2 mps 640 mmHg 28%
    16:00 +27°C° 0 mm 2 mps 639 mmHg 36%
    17:00 +25°C° 0 mm 1 mps 639 mmHg 44%
    18:00 +23°C° 0 mm 1 mps 638 mmHg 52%
    19:00 +21°C° 0 mm 1 mps 638 mmHg 58%
    20:00 +19°C° 0 mm 1 mps 638 mmHg 64%
    21:00 +16°C° 0 mm 1 mps 637 mmHg 70%
    22:00 +16°C° 0 mm 1 mps 637 mmHg 70%
    23:00 +16°C° 0 mm 1 mps 637 mmHg 70%

    Day after tomorrow, 23 August, Wednesday

    Time Temperature Precipitation Wind Pressure Humidity
    00:00 +14°C° 0 mm 0 mps 637 mmHg 71%
    01:00 +14°C° 0 mm 0 mps 637 mmHg 71%
    02:00 +15°C° 0 mm 1 mps 637 mmHg 71%
    03:00 +14°C° 0 mm 1 mps 637 mmHg 72%
    04:00 +15°C° 0.1 mm 1 mps 637 mmHg 71%
    05:00 +15°C° 0.1 mm 1 mps 637 mmHg 70%
    06:00 +14°C° 0.1 mm 0 mps 637 mmHg 70%
    07:00 +18°C° 0.1 mm 1 mps 638 mmHg 62%
    08:00 +21°C° 0.1 mm 1 mps 639 mmHg 54%
    09:00 +23°C° 0.1 mm 2 mps 640 mmHg 47%
    10:00 +24°C° 0 mm 2 mps 640 mmHg 43%
    11:00 +25°C° 0 mm 2 mps 640 mmHg 40%
    12:00 +26°C° 0 mm 3 mps 640 mmHg 37%
    13:00 +26°C° 0 mm 3 mps 640 mmHg 38%
    14:00 +26°C° 0 mm 2 mps 640 mmHg 38%
    15:00 +26°C° 0 mm 2 mps 639 mmHg 39%
    16:00 +25°C° 0.1 mm 2 mps 639 mmHg 45%
    17:00 +23°C° 0.1 mm 2 mps 638 mmHg 52%
    18:00 +22°C° 0.1 mm 1 mps 638 mmHg 58%
    19:00 +20°C° 0.1 mm 1 mps 637 mmHg 62%
    20:00 +19°C° 0.1 mm 1 mps 637 mmHg 67%
    21:00 +16°C° 0.1 mm 1 mps 637 mmHg 71%
    22:00 +16°C° 0.1 mm 1 mps 637 mmHg 71%
    23:00 +15°C° 0.1 mm 1 mps 637 mmHg 71%

    24 August, Thursday

    Time Temperature Precipitation Wind Pressure Humidity
    00:00 +15°C° 0.1 mm 1 mps 637 mmHg 71%
    01:00 +15°C° 0.1 mm 1 mps 636 mmHg 69%
    02:00 +15°C° 0.1 mm 1 mps 636 mmHg 67%
    03:00 +15°C° 0.1 mm 1 mps 636 mmHg 66%
    04:00 +15°C° 0 mm 1 mps 636 mmHg 65%
    05:00 +15°C° 0 mm 1 mps 636 mmHg 64%
    06:00 +15°C° 0 mm 1 mps 636 mmHg 64%
    07:00 +18°C° 0.1 mm 1 mps 637 mmHg 57%
    08:00 +20°C° 0.1 mm 2 mps 638 mmHg 49%
    09:00 +23°C° 0.1 mm 2 mps 639 mmHg 42%
    10:00 +25°C° 0.1 mm 2 mps 640 mmHg 39%
    11:00 +26°C° 0.1 mm 3 mps 640 mmHg 36%
    12:00 +27°C° 0.1 mm 3 mps 640 mmHg 33%
    13:00 +27°C° 0 mm 3 mps 640 mmHg 33%
    14:00 +27°C° 0 mm 3 mps 639 mmHg 33%
    15:00 +27°C° 0 mm 3 mps 639 mmHg 33%
    16:00 +25°C° 0 mm 3 mps 638 mmHg 38%
    17:00 +24°C° 0 mm 3 mps 638 mmHg 44%
    18:00 +21°C° 0 mm 2 mps 637 mmHg 50%
    19:00 +19°C° 0 mm 2 mps 637 mmHg 53%
    20:00 +17°C° 0 mm 2 mps 636 mmHg 56%
    21:00 +16°C° 0 mm 2 mps 636 mmHg 59%
    22:00 +15°C° 0 mm 2 mps 636 mmHg 57%
    23:00 +15°C° 0 mm 2 mps 636 mmHg 55%

    25 August, Friday

    Time Temperature Precipitation Wind Pressure Humidity
    00:00 +15°C° 0 mm 2 mps 635 mmHg 53%
    01:00 +15°C° 0 mm 2 mps 635 mmHg 53%
    02:00 +14°C° 0 mm 2 mps 635 mmHg 53%
    03:00 +14°C° 0 mm 2 mps 635 mmHg 53%
    04:00 +14°C° 0 mm 2 mps 635 mmHg 53%
    05:00 +14°C° 0 mm 2 mps 635 mmHg 54%
    06:00 +15°C° 0 mm 2 mps 635 mmHg 54%
    07:00 +17°C° 0 mm 2 mps 636 mmHg 47%
    08:00 +20°C° 0 mm 2 mps 637 mmHg 40%
    09:00 +24°C° 0 mm 3 mps 638 mmHg 33%
    10:00 +26°C° 0 mm 3 mps 638 mmHg 30%
    11:00 +27°C° 0 mm 4 mps 638 mmHg 28%
    12:00 +28°C° 0 mm 4 mps 638 mmHg 25%
    13:00 +28°C° 0 mm 4 mps 638 mmHg 26%
    14:00 +28°C° 0 mm 4 mps 638 mmHg 27%
    15:00 +28°C° 0 mm 4 mps 637 mmHg 27%
    16:00 +26°C° 0 mm 3 mps 636 mmHg 33%
    17:00 +24°C° 0 mm 3 mps 636 mmHg 39%
    18:00 +21°C° 0 mm 3 mps 635 mmHg 45%
    19:00 +19°C° 0 mm 2 mps 635 mmHg 48%
    20:00 +18°C° 0 mm 2 mps 634 mmHg 50%
    21:00 +16°C° 0 mm 2 mps 634 mmHg 52%
    22:00 +16°C° 0 mm 2 mps 634 mmHg 50%
    23:00 +15°C° 0 mm 2 mps 634 mmHg 48%

    26 August, Saturday

    Time Temperature Precipitation Wind Pressure Humidity
    00:00 +15°C° 0 mm 2 mps 634 mmHg 46%
    01:00 +15°C° 0.1 mm 2 mps 633 mmHg 48%
    02:00 +14°C° 0.1 mm 2 mps 633 mmHg 51%
    03:00 +14°C° 0.1 mm 1 mps 633 mmHg 53%
    04:00 +14°C° 0.1 mm 2 mps 633 mmHg 56%
    05:00 +14°C° 0.1 mm 2 mps 633 mmHg 58%
    06:00 +14°C° 0.1 mm 2 mps 633 mmHg 61%
    07:00 +17°C° 0 mm 2 mps 634 mmHg 54%
    08:00 +20°C° 0 mm 3 mps 635 mmHg 47%
    09:00 +24°C° 0 mm 3 mps 636 mmHg 40%
    10:00 +25°C° 0 mm 4 mps 636 mmHg 38%
    11:00 +26°C° 0 mm 5 mps 636 mmHg 37%
    12:00 +27°C° 0 mm 5 mps 636 mmHg 35%
    13:00 +27°C° 0.7 mm 5 mps 636 mmHg 40%
    14:00 +26°C° 0.7 mm 5 mps 635 mmHg 45%
    15:00 +25°C° 0.7 mm 5 mps 635 mmHg 50%
    16:00 +23°C° 0.6 mm 4 mps 634 mmHg 55%
    17:00 +21°C° 0.6 mm 3 mps 634 mmHg 61%
    18:00 +20°C° 0.6 mm 3 mps 633 mmHg 66%
    19:00 +18°C° 0.2 mm 2 mps 633 mmHg 70%
    20:00 +17°C° 0.2 mm 2 mps 633 mmHg 75%
    21:00 +15°C° 0.2 mm 2 mps 633 mmHg 79%
    22:00 +15°C° 0.1 mm 2 mps 633 mmHg 79%
    23:00 +14°C° 0.1 mm 2 mps 633 mmHg 80%
    Show more